Time,TemperatureF,DewpointF,PressureIn,WindDirection,WindDirectionDegrees,WindSpeedMPH,WindSpeedGustMPH,Humidity,HourlyPrecipIn,Conditions,Clouds,dailyrainin,SolarRadiationWatts/m^2,SoftwareType,DateUTC
2013-09-06 00:08:00,54.1,50.0,30.17,ENE,63,0.0,-999.0,87,-99.99,,,0.00,0,weatherlink.com 1.10,2013-09-06 04:08:00,
2013-09-06 00:23:00,54.1,50.0,30.16,ENE,63,0.0,-999.0,87,-99.99,,,0.00,0,weatherlink.com 1.10,2013-09-06 04:23:00,
2013-09-06 00:38:00,54.2,51.0,30.17,ENE,63,0.0,-999.0,87,-99.99,,,0.00,0,weatherlink.com 1.10,2013-09-06 04:38:00,
2013-09-06 00:53:00,54.1,50.0,30.17,ENE,63,0.0,-999.0,87,-99.99,,,0.00,0,weatherlink.com 1.10,2013-09-06 04:53:00,
2013-09-06 01:08:00,54.1,50.0,30.16,ENE,63,0.0,-999.0,87,-99.99,,,0.00,0,weatherlink.com 1.10,2013-09-06 05:08:00,
2013-09-06 01:23:00,53.9,50.0,30.16,ENE,63,0.0,-999.0,87,-99.99,,,0.00,0,weatherlink.com 1.10,2013-09-06 05:23:00,
2013-09-06 01:38:00,53.8,50.0,30.16,ENE,63,0.0,-999.0,88,-99.99,,,0.00,0,weatherlink.com 1.10,2013-09-06 05:38:00,
2013-09-06 01:53:00,54.0,51.0,30.16,WSW,250,0.0,-999.0,89,-99.99,,,0.00,0,weatherlink.com 1.10,2013-09-06 05:53:00,
2013-09-06 02:09:00,54.1,51.0,30.15,WSW,254,0.0,-999.0,89,-99.99,,,0.00,0,weatherlink.com 1.10,2013-09-06 06:09:00,
2013-09-06 02:24:00,54.2,51.0,30.15,WSW,254,0.0,-999.0,88,-99.99,,,0.00,0,weatherlink.com 1.10,2013-09-06 06:24:00,
2013-09-06 02:39:00,54.1,51.0,30.15,WSW,254,0.0,-999.0,89,-99.99,,,0.00,0,weatherlink.com 1.10,2013-09-06 06:39:00,
2013-09-06 02:54:00,54.0,52.0,30.14,WSW,254,0.0,-999.0,92,-99.99,,,0.00,0,weatherlink.com 1.10,2013-09-06 06:54:00,
2013-09-06 03:09:00,53.9,51.0,30.15,WSW,254,0.0,-999.0,89,-99.99,,,0.00,0,weatherlink.com 1.10,2013-09-06 07:09:00,
2013-09-06 03:24:00,53.8,51.0,30.14,WSW,254,0.0,-999.0,90,-99.99,,,0.00,0,weatherlink.com 1.10,2013-09-06 07:24:00,
2013-09-06 03:39:00,53.6,51.0,30.14,WSW,254,0.0,-999.0,90,-99.99,,,0.00,0,weatherlink.com 1.10,2013-09-06 07:39:00,
2013-09-06 03:54:00,53.3,51.0,30.13,WSW,254,0.0,-999.0,90,-99.99,,,0.00,0,weatherlink.com 1.10,2013-09-06 07:54:00,
2013-09-06 04:09:00,53.2,51.0,30.12,South,179,0.0,-999.0,91,-99.99,,,0.00,0,weatherlink.com 1.10,2013-09-06 08:09:00,
2013-09-06 04:24:00,53.2,51.0,30.11,South,179,0.0,-999.0,91,-99.99,,,0.00,0,weatherlink.com 1.10,2013-09-06 08:24:00,
2013-09-06 04:39:00,53.5,51.0,30.11,South,179,0.0,-999.0,92,-99.99,,,0.00,0,weatherlink.com 1.10,2013-09-06 08:39:00,
2013-09-06 04:55:00,53.8,51.0,30.11,South,179,0.0,-999.0,91,-99.99,,,0.00,0,weatherlink.com 1.10,2013-09-06 08:55:00,
2013-09-06 05:10:00,54.0,52.0,30.11,South,179,0.0,-999.0,91,-99.99,,,0.00,0,weatherlink.com 1.10,2013-09-06 09:10:00,
2013-09-06 05:25:00,54.0,52.0,30.11,South,179,0.0,-999.0,91,-99.99,,,0.00,0,weatherlink.com 1.10,2013-09-06 09:25:00,
2013-09-06 05:40:00,53.9,51.0,30.12,South,179,0.0,-999.0,91,-99.99,,,0.00,0,weatherlink.com 1.10,2013-09-06 09:40:00,
2013-09-06 05:55:00,53.5,51.0,30.11,South,179,0.0,-999.0,91,-99.99,,,0.00,0,weatherlink.com 1.10,2013-09-06 09:55:00,
2013-09-06 06:10:00,53.2,51.0,30.11,South,179,0.0,-999.0,92,-99.99,,,0.00,0,weatherlink.com 1.10,2013-09-06 10:10:00,
2013-09-06 06:25:00,53.0,51.0,30.11,South,179,0.0,-999.0,92,-99.99,,,0.00,0,weatherlink.com 1.10,2013-09-06 10:25:00,
2013-09-06 06:40:00,52.8,51.0,30.12,South,179,0.0,-999.0,92,-99.99,,,0.00,0,weatherlink.com 1.10,2013-09-06 10:40:00,
2013-09-06 06:55:00,52.4,50.0,30.12,South,179,0.0,-999.0,92,-99.99,,,0.00,0,weatherlink.com 1.10,2013-09-06 10:55:00,
2013-09-06 07:10:00,52.1,50.0,30.13,South,179,0.0,-999.0,93,-99.99,,,0.00,0,weatherlink.com 1.10,2013-09-06 11:10:00,
2013-09-06 07:25:00,51.6,50.0,30.13,South,179,0.0,-999.0,93,-99.99,,,0.00,5,weatherlink.com 1.10,2013-09-06 11:25:00,
2013-09-06 07:40:00,51.2,49.0,30.14,South,179,0.0,-999.0,93,-99.99,,,0.00,14,weatherlink.com 1.10,2013-09-06 11:40:00,
2013-09-06 07:56:00,51.1,50.0,30.15,South,179,0.0,-999.0,94,-99.99,,,0.00,47,weatherlink.com 1.10,2013-09-06 11:56:00,
2013-09-06 08:11:00,51.5,50.0,30.14,South,179,0.0,-999.0,95,-99.99,,,0.00,60,weatherlink.com 1.10,2013-09-06 12:11:00,
2013-09-06 08:26:00,52.2,51.0,30.12,South,179,0.0,-999.0,95,-99.99,,,0.00,155,weatherlink.com 1.10,2013-09-06 12:26:00,
2013-09-06 08:41:00,53.7,52.0,30.11,South,179,0.0,-999.0,93,-99.99,,,0.00,125,weatherlink.com 1.10,2013-09-06 12:41:00,
2013-09-06 08:56:00,55.3,52.0,30.11,South,179,0.0,-999.0,89,-99.99,,,0.00,204,weatherlink.com 1.10,2013-09-06 12:56:00,
2013-09-06 09:11:00,56.6,53.0,30.10,South,179,0.0,-999.0,86,-99.99,,,0.00,294,weatherlink.com 1.10,2013-09-06 13:11:00,
2013-09-06 09:26:00,58.2,53.0,30.09,South,179,0.0,-999.0,83,-99.99,,,0.00,334,weatherlink.com 1.10,2013-09-06 13:26:00,
2013-09-06 09:41:00,60.3,54.0,30.09,ENE,69,1.0,-999.0,80,-99.99,,,0.00,380,weatherlink.com 1.10,2013-09-06 13:41:00,
2013-09-06 09:57:00,62.2,55.0,30.08,SW,222,0.0,-999.0,77,-99.99,,,0.00,248,weatherlink.com 1.10,2013-09-06 13:57:00,
2013-09-06 10:12:00,63.6,56.0,30.08,SSW,204,0.0,-999.0,75,-99.99,,,0.00,483,weatherlink.com 1.10,2013-09-06 14:12:00,
2013-09-06 10:27:00,65.4,57.0,30.08,SSW,202,1.0,-999.0,74,-99.99,,,0.00,476,weatherlink.com 1.10,2013-09-06 14:27:00,
2013-09-06 10:42:00,67.2,58.0,30.07,SE,135,0.0,-999.0,73,-99.99,,,0.00,450,weatherlink.com 1.10,2013-09-06 14:42:00,
2013-09-06 10:57:00,69.1,59.0,30.05,NNW,329,0.0,-999.0,71,-99.99,,,0.00,628,weatherlink.com 1.10,2013-09-06 14:57:00,
2013-09-06 11:12:00,69.3,60.0,30.03,West,262,0.0,-999.0,71,-99.99,,,0.00,290,weatherlink.com 1.10,2013-09-06 15:12:00,
2013-09-06 11:27:00,70.2,60.0,30.04,SSW,209,0.0,-999.0,70,-99.99,,,0.00,513,weatherlink.com 1.10,2013-09-06 15:27:00,
2013-09-06 11:42:00,71.5,61.0,30.04,SSE,159,1.0,-999.0,69,-99.99,,,0.00,545,weatherlink.com 1.10,2013-09-06 15:42:00,
2013-09-06 11:58:00,72.6,62.0,30.03,SSW,200,1.0,-999.0,69,-99.99,,,0.00,506,weatherlink.com 1.10,2013-09-06 15:58:00,
2013-09-06 12:13:00,73.3,63.0,30.02,SSW,206,0.0,-999.0,69,-99.99,,,0.00,559,weatherlink.com 1.10,2013-09-06 16:13:00,
2013-09-06 12:28:00,74.6,64.0,30.02,SSW,206,0.0,-999.0,69,-99.99,,,0.00,622,weatherlink.com 1.10,2013-09-06 16:28:00,
2013-09-06 12:43:00,76.6,64.0,30.02,NW,315,3.0,-999.0,66,-99.99,,,0.00,775,weatherlink.com 1.10,2013-09-06 16:43:00,
2013-09-06 12:58:00,78.1,65.0,30.01,SW,215,0.0,-999.0,64,-99.99,,,0.00,745,weatherlink.com 1.10,2013-09-06 16:58:00,
2013-09-06 13:13:00,78.4,64.0,30.01,SW,231,1.0,-999.0,62,-99.99,,,0.00,780,weatherlink.com 1.10,2013-09-06 17:13:00,
2013-09-06 13:28:00,77.8,66.0,30.00,WSW,253,0.0,-999.0,66,-99.99,,,0.00,454,weatherlink.com 1.10,2013-09-06 17:28:00,
2013-09-06 13:45:00,77.9,66.0,29.99,SW,225,0.0,-999.0,66,-99.99,,,0.00,304,weatherlink.com 1.10,2013-09-06 17:45:00,
2013-09-06 14:02:00,77.6,65.0,29.99,West,265,0.0,-999.0,66,-99.99,,,0.00,338,weatherlink.com 1.10,2013-09-06 18:02:00,
2013-09-06 14:14:00,77.8,66.0,29.98,SW,226,0.0,-999.0,66,-99.99,,,0.00,338,weatherlink.com 1.10,2013-09-06 18:14:00,
2013-09-06 14:29:00,77.6,65.0,29.98,NNW,342,0.0,-999.0,66,-99.99,,,0.00,274,weatherlink.com 1.10,2013-09-06 18:29:00,
2013-09-06 14:44:00,76.8,66.0,29.98,NNE,22,0.0,-999.0,69,-99.99,,,0.00,197,weatherlink.com 1.10,2013-09-06 18:44:00,
2013-09-06 14:59:00,76.4,67.0,29.97,NNE,22,0.0,-999.0,72,-99.99,,,0.00,236,weatherlink.com 1.10,2013-09-06 18:59:00,
2013-09-06 15:14:00,76.8,66.0,29.97,NNE,22,0.0,-999.0,70,-99.99,,,0.00,253,weatherlink.com 1.10,2013-09-06 19:14:00,
2013-09-06 15:29:00,77.2,67.0,29.96,North,350,0.0,-999.0,71,-99.99,,,0.00,229,weatherlink.com 1.10,2013-09-06 19:29:00,
2013-09-06 15:45:00,77.5,68.0,29.95,North,350,0.0,-999.0,72,-99.99,,,0.00,134,weatherlink.com 1.10,2013-09-06 19:45:00,
2013-09-06 16:00:00,77.0,68.0,29.94,North,350,0.0,-999.0,73,-99.99,,,0.00,107,weatherlink.com 1.10,2013-09-06 20:00:00,
2013-09-06 16:15:00,76.3,68.0,29.94,North,350,0.0,-999.0,75,-99.99,,,0.00,54,weatherlink.com 1.10,2013-09-06 20:15:00,
2013-09-06 16:30:00,75.6,69.0,29.94,North,350,0.0,-999.0,79,-99.99,,,0.00,32,weatherlink.com 1.10,2013-09-06 20:30:00,
2013-09-06 16:45:00,74.8,69.0,29.93,North,350,0.0,-999.0,82,-99.99,,,0.00,127,weatherlink.com 1.10,2013-09-06 20:45:00,
2013-09-06 17:00:00,74.0,69.0,29.94,North,350,0.0,-999.0,85,-99.99,,,0.00,104,weatherlink.com 1.10,2013-09-06 21:00:00,
2013-09-06 17:15:00,73.2,70.0,29.93,North,350,0.0,-999.0,88,-99.99,,,0.02,88,weatherlink.com 1.10,2013-09-06 21:15:00,
2013-09-06 17:30:00,72.0,69.0,29.93,North,350,0.0,-999.0,89,-99.99,,,0.03,49,weatherlink.com 1.10,2013-09-06 21:30:00,
2013-09-06 17:45:00,70.9,68.0,29.91,North,350,0.0,-999.0,91,-99.99,,,0.06,28,weatherlink.com 1.10,2013-09-06 21:45:00,
2013-09-06 18:00:00,70.3,68.0,29.91,North,350,0.0,-999.0,92,-99.99,,,0.06,54,weatherlink.com 1.10,2013-09-06 22:00:00,
2013-09-06 18:15:00,70.1,68.0,29.91,North,350,0.0,-999.0,93,-99.99,,,0.06,65,weatherlink.com 1.10,2013-09-06 22:15:00,
2013-09-06 18:31:00,70.1,68.0,29.90,North,350,0.0,-999.0,94,-99.99,,,0.06,65,weatherlink.com 1.10,2013-09-06 22:31:00,
2013-09-06 18:46:00,70.1,68.0,29.90,North,350,0.0,-999.0,94,-99.99,,,0.06,47,weatherlink.com 1.10,2013-09-06 22:46:00,
2013-09-06 19:01:00,69.9,68.0,29.90,North,350,0.0,-999.0,94,-99.99,,,0.06,65,weatherlink.com 1.10,2013-09-06 23:01:00,
2013-09-06 19:16:00,69.7,68.0,29.89,North,350,0.0,-999.0,94,-99.99,,,0.06,26,weatherlink.com 1.10,2013-09-06 23:16:00,
2013-09-06 19:31:00,69.5,68.0,29.89,North,350,0.0,-999.0,94,-99.99,,,0.06,12,weatherlink.com 1.10,2013-09-06 23:31:00,
2013-09-06 19:46:00,69.2,68.0,29.89,North,350,0.0,-999.0,94,-99.99,,,0.06,7,weatherlink.com 1.10,2013-09-06 23:46:00,
2013-09-06 20:01:00,69.0,67.0,29.89,North,350,0.0,-999.0,94,-99.99,,,0.06,5,weatherlink.com 1.10,2013-09-07 00:01:00,
2013-09-06 20:16:00,68.7,67.0,29.89,North,350,0.0,-999.0,95,-99.99,,,0.06,0,weatherlink.com 1.10,2013-09-07 00:16:00,
2013-09-06 20:31:00,68.3,67.0,29.88,North,350,0.0,-999.0,95,-99.99,,,0.06,0,weatherlink.com 1.10,2013-09-07 00:31:00,
2013-09-06 20:46:00,68.0,67.0,29.88,North,350,0.0,-999.0,95,-99.99,,,0.06,0,weatherlink.com 1.10,2013-09-07 00:46:00,
2013-09-06 21:01:00,67.6,66.0,29.88,North,350,0.0,-999.0,95,-99.99,,,0.06,0,weatherlink.com 1.10,2013-09-07 01:01:00,
2013-09-06 21:16:00,67.2,66.0,29.89,ENE,78,0.0,-999.0,95,-99.99,,,0.06,0,weatherlink.com 1.10,2013-09-07 01:16:00,
2013-09-06 21:31:00,66.9,66.0,29.89,ENE,78,0.0,-999.0,95,-99.99,,,0.06,0,weatherlink.com 1.10,2013-09-07 01:31:00,
2013-09-06 21:47:00,66.6,65.0,29.89,ENE,78,0.0,-999.0,95,-99.99,,,0.06,0,weatherlink.com 1.10,2013-09-07 01:47:00,
2013-09-06 22:02:00,66.2,65.0,29.89,ENE,78,0.0,-999.0,95,-99.99,,,0.06,0,weatherlink.com 1.10,2013-09-07 02:02:00,
2013-09-06 22:17:00,66.0,65.0,29.88,ENE,78,0.0,-999.0,95,-99.99,,,0.06,0,weatherlink.com 1.10,2013-09-07 02:17:00,
2013-09-06 22:32:00,65.8,64.0,29.88,ENE,78,0.0,-999.0,95,-99.99,,,0.06,0,weatherlink.com 1.10,2013-09-07 02:32:00,
2013-09-06 22:47:00,65.6,64.0,29.87,ENE,78,0.0,-999.0,95,-99.99,,,0.06,0,weatherlink.com 1.10,2013-09-07 02:47:00,
2013-09-06 23:02:00,65.5,64.0,29.87,ENE,78,0.0,-999.0,95,-99.99,,,0.06,0,weatherlink.com 1.10,2013-09-07 03:02:00,
2013-09-06 23:17:00,65.5,64.0,29.87,ENE,78,0.0,-999.0,95,-99.99,,,0.06,0,weatherlink.com 1.10,2013-09-07 03:17:00,
2013-09-06 23:32:00,65.5,64.0,29.86,ENE,78,0.0,-999.0,95,-99.99,,,0.06,0,weatherlink.com 1.10,2013-09-07 03:32:00,
2013-09-06 23:47:00,65.5,64.0,29.86,ENE,78,0.0,-999.0,95,-99.99,,,0.06,0,weatherlink.com 1.10,2013-09-07 03:47:00,